Starlink 11701

operational
NORAD ID: 63760 Int'l Des: 2025-089 Owner: SPXS Country: US Constellation: starlink
LEOCIRCULAR

关于 Starlink 11701

正在加载描述...

实时位置

正在加载3D地球...

即将过境

高度历史

Altitude vs Time

uPlot chart will show altitude changes over time

两行轨道根数

1 63760U 25089K 25259.37111587 .00184355 00000-0 14057-2 0 9997
2 63760 42.9983 262.6266 0002869 273.9316 86.1224 15.70887415 22727
Epoch: Sep 16, 2025 • Age: 42 hours

当前状态

高度 355.4 km
速度 7.70 km/s
星下点 21.58°N, 9.03°E
发射日期 Apr 29, 2025
运行时间 0.3 years
类型 internet

技术详情

分类 Payload
质量 960.00 kg
干质量 910.00 kg
总质量 960.00 kg
长度 0.30 m
直径 4.10 m
跨度 29.00 m
形状 Box + pan
制造商 SPXS
平台类型 Starlink V2MD
阶段状态 In Orbit
所有者/国家 SPXS/US

大型星座

Loading constellations...